Moab, Utah
Current Conditions -  °F | °C
As of 5:53 AM on Saturday 22 Nov 2014 (Local Time) from KCNY Reporting Station
Clear Clear  
Wind Chill: 23°   Ceiling: Unl
Heat Index: 23°   Visibility: 10mi
Dew Point: 13°   Wind: 0mph
Humidity: 65%   Direction: NA
Pressure: 30.05"   Gusts: NA
Location:  38.57°N, 109.55°W
Report Text: KCNY 221253Z AUTO 00000KT 10SM CLR M05/M11 A3005 RMK AO2 SLP201 T10501106
Loading
Personal Weather Stations






























Interactive Weather Map New forecast layout! Learn more

10-Day Weather Forecast

Advertisements
Track Severe Weather on mobile